This demonstration page uses our WeatherBlox Daily Observations layout. Learn more.

39.29038, -76.61219

Hourly Observations for October 1, 2020

Temp ( °F °C ) Dew Point ( °F °C ) Humidity (%) Winds ( mph kmh ) Pressure ( in mb ) Visibility ( mi km ) Precip ( " mm )
12:54 am 00:54 Clear 59 15 51 10.6 75 75 Calm 29.9 1012 10 16.0934 0 0
1:54 am 01:54 Clear 59 15 51 10.6 75 75 SSW 5 7 29.9 1012 10 16.0934 0 0
2:54 am 02:54 Clear 58 14.4 52 11.1 81 81 SSW 6 9 29.88 1012 10 16.0934 0 0
3:54 am 03:54 Clear 57 13.9 52 11.1 83 83 WSW 6 9 29.88 1012 10 16.0934 0 0
4:54 am 04:54 Mostly Clear 56 13.3 52 11.1 87 87 WSW 3 6 29.88 1012 10 16.0934 0 0
5:54 am 05:54 Partly Cloudy 56 13.3 52 11.1 87 87 WSW 6 9 29.89 1012 10 16.0934 0 0
6:54 am 06:54 Mostly Clear 55 12.8 51 10.6 87 87 W 5 7 29.91 1013 10 16.0934 0 0
7:54 am 07:54 Partly Cloudy 58 14.4 53 11.7 84 84 W 7 11 29.92 1013 10 16.0934 0 0
8:54 am 08:54 Mostly Cloudy 61 16.1 54 12.2 78 78 VRB 6 9 29.92 1013 10 16.0934 0 0
9:54 am 09:54 Mostly Cloudy 66 18.9 54 12.2 65 65 WNW 5 7 29.93 1014 10 16.0934 0 0
10:54 am 10:54 Mostly Cloudy 67 19.4 54 12.2 63 63 W 5 7 29.94 1014 10 16.0934 0 0
11:54 am 11:54 Mostly Cloudy 70 21.1 52 11.1 53 53 WNW 10 17 29.94 1014 10 16.0934 0 0
12:54 pm 12:54 Mostly Cloudy 72 22.2 51 10.6 48 48 NW 10 17 29.94 1014 10 16.0934 0 0
1:54 pm 13:54 Mostly Cloudy 73 22.8 52 11.1 48 48 W 10 17 29.93 1014 10 16.0934 0 0
2:54 pm 14:54 Mostly Cloudy 72 22.2 50 10 46 46 NW 12 19 29.92 1013 10 16.0934 0 0
3:54 pm 15:54 Mostly Cloudy 73 22.8 51 10.6 46 46 N 5 7 29.91 1013 10 16.0934 0 0
4:54 pm 16:54 Mostly Cloudy 69 20.6 52 11.1 55 55 NNW 6 9 29.91 1013 10 16.0934 0 0
5:54 pm 17:54 Mostly Cloudy 68 20 52 11.1 57 57 NNW 5 7 29.92 1013 10 16.0934 0 0
6:54 pm 18:54 Cloudy with Light Rain 61 16.1 54 12.2 78 78 N 5 7 29.94 1014 7 11.26538 0.03 0.762
7:54 pm 19:54 Cloudy 61 16.1 57 13.9 87 87 Calm 29.94 1014 8 12.87472 0.001 0.001
8:54 pm 20:54 Cloudy 61 16.1 57 13.9 87 87 Calm 29.95 1014 10 16.0934 0 0
9:54 pm 21:54 Cloudy with Light Rain 61 16.1 56 13.3 84 84 SSE 6 9 29.97 1015 6 9.65604 0.001 0.001
10:54 pm 22:54 Cloudy with Light Rain 60 15.6 56 13.3 86 86 Calm 30 1016 6 9.65604 0.001 0.001
11:54 pm 23:54 Cloudy 58 14.4 55 12.8 90 90 VRB 3 6 29.98 1015 9 14.48406 0.01 0.254

Powered by AerisWeather